This is the latest recevied weather packets stored in our database for station/object K5BOU. If no packets are shown the sender has not sent any weather packets the latest 10 day(s).
| Time | Temp. | Humidity | Pressure | Rain* | Wind** | Luminosity | Snow |
|---|---|---|---|---|---|---|---|
| 1788375225 | 34.44° C | 63% | 1011.6 hPa | 0 mm | - | 291 W/m² | - |
| 1788374920 | 34.44° C | 64% | 1011.7 hPa | 0 mm | - | 464 W/m² | - |
| 1788374615 | 35° C | 63% | 1011.6 hPa | 0 mm | - | 448 W/m² | - |
| 1788374311 | 35° C | 63% | 1011.7 hPa | 0 mm | - | 520 W/m² | - |
| 1788374007 | 35° C | 63% | 1011.7 hPa | 0 mm | - | 672 W/m² | - |
| 1788373702 | 35.56° C | 63% | 1012 hPa | 0 mm | - | 765 W/m² | - |
| 1788373398 | 35° C | 66% | 1012.1 hPa | 0 mm | - | 772 W/m² | - |
| 1788373095 | 35° C | 66% | 1011.9 hPa | 0 mm | - | 756 W/m² | - |
| 1788372790 | 34.44° C | 64% | 1012.2 hPa | 0 mm | - | 781 W/m² | - |
| 1788372484 | 35° C | 66% | 1012.1 hPa | 0 mm | - | 757 W/m² | - |
| 1788372180 | 34.44° C | 66% | 1012.3 hPa | 0 mm | - | 773 W/m² | - |
| 1788371875 | 33.89° C | 68% | 1012.6 hPa | 0 mm | - | 738 W/m² | - |
| 1788371571 | 33.89° C | 67% | 1012.6 hPa | 0 mm | - | 744 W/m² | - |
| 1788371266 | 33.89° C | 69% | 1012.8 hPa | 0 mm | - | 643 W/m² | - |
| 1788370962 | 33.89° C | 69% | 1012.7 hPa | 0 mm | - | 724 W/m² | - |
| 1788370657 | 33.33° C | 70% | 1012.8 hPa | 0 mm | - | 727 W/m² | - |
| 1788370357 | 33.33° C | 70% | 1012.8 hPa | 0 mm | - | 686 W/m² | - |
| 1788370052 | 33.33° C | 71% | 1013.1 hPa | 0 mm | - | 656 W/m² | - |
| 1788369752 | 32.78° C | 71% | 1013.2 hPa | 0 mm | - | 645 W/m² | - |
| 1788369447 | 33.33° C | 72% | 1013.1 hPa | 0 mm | - | 588 W/m² | - |
| 1788369142 | 32.78° C | 74% | 1013.4 hPa | 0 mm | - | 565 W/m² | - |
| 1788368838 | 32.22° C | 76% | 1013.4 hPa | 0 mm | - | 592 W/m² | - |
| 1788368533 | 32.22° C | 76% | 1013.5 hPa | 0 mm | - | 529 W/m² | - |
| 1788368228 | 31.67° C | 78% | 1013.5 hPa | 0 mm | - | 444 W/m² | - |
| 1788367922 | 31.67° C | 78% | 1013.5 hPa | 0 mm | - | 300 W/m² | - |
* Rain latest hour (hover to see other rain measurements)
** Current wind speed in m/s (hover to see current wind gust speed)